User: anonymous   Login
Location: Unspecified
(0.0000°N, 0.0000°E)
Time: 16:19:42
(UTC+00:00)
Language:

Syncom 2 - Orbit

View from above orbital plane
View from above orbital plane
View from above satellite
View from above satellite

Ground track
Ground track

The orbit data is extracted from the following two-line orbital elements,

1 00634U 63031A   18114.72870990 -.00000136  00000-0  00000+0 0  9993
2 00634  35.1678 341.6216 0004640 135.4152  75.3003  1.00296864200526
Epoch (UTC): 24 April 2018 17:29:20
Eccentricity: 0.0004640
inclination: 35.1678°
perigee height: 35759 km
apogee height: 35799 km
right ascension of ascending node: 341.6216°
argument of perigee: 135.4152°
revolutions per day: 1.00296864
mean anomaly at epoch: 75.3003°
orbit number at epoch: 20052

The dashed part of the orbit path shows where the satellite is in the earth's shadow,  

DLR